TimePDT,TemperatureF,Dew PointF,Humidity,Sea Level PressureIn,VisibilityMPH,Wind Direction,Wind SpeedMPH,Gust SpeedMPH,PrecipitationIn,Events,Conditions,WindDirDegrees,DateUTC
12:53 AM,90.0,48.0,24,29.61,10.0,WSW,10.4,-,N/A,,Clear,250,2013-07-04 07:53:00
1:53 AM,87.1,48.9,27,29.61,10.0,SW,3.5,-,N/A,,Clear,220,2013-07-04 08:53:00
2:53 AM,87.1,48.0,26,29.60,10.0,ESE,4.6,-,N/A,,Clear,120,2013-07-04 09:53:00
3:53 AM,82.9,72.0,69,29.59,10.0,SE,5.8,-,N/A,,Clear,130,2013-07-04 10:53:00
4:53 AM,82.0,72.0,71,29.61,10.0,ESE,5.8,-,N/A,,Clear,120,2013-07-04 11:53:00
5:53 AM,82.0,73.0,74,29.64,10.0,SE,16.1,-,N/A,,Clear,140,2013-07-04 12:53:00
6:53 AM,84.0,73.0,69,29.65,10.0,SSE,15.0,-,N/A,,Clear,150,2013-07-04 13:53:00
7:53 AM,88.0,75.0,65,29.67,10.0,SE,19.6,-,N/A,,Clear,140,2013-07-04 14:53:00
8:53 AM,91.0,75.0,59,29.68,10.0,SSE,17.3,-,N/A,,Clear,150,2013-07-04 15:53:00
9:53 AM,93.9,75.9,56,29.68,10.0,SE,13.8,-,N/A,,Clear,130,2013-07-04 16:53:00
10:53 AM,99.0,72.0,42,29.67,10.0,SE,11.5,-,N/A,,Clear,130,2013-07-04 17:53:00
11:53 AM,100.9,64.9,31,29.67,10.0,SE,6.9,-,N/A,,Clear,140,2013-07-04 18:53:00
12:53 PM,105.1,64.9,27,29.65,10.0,ESE,9.2,-,N/A,,Clear,110,2013-07-04 19:53:00
1:53 PM,106.0,57.0,20,29.62,10.0,ESE,4.6,-,N/A,,Clear,110,2013-07-04 20:53:00
2:53 PM,107.1,62.1,23,29.60,10.0,SSE,9.2,-,N/A,,Clear,160,2013-07-04 21:53:00
3:53 PM,109.0,60.1,20,29.57,10.0,ESE,10.4,-,N/A,,Partly Cloudy,120,2013-07-04 22:53:00
4:53 PM,109.0,55.0,17,29.55,10.0,SE,12.7,-,N/A,,Partly Cloudy,130,2013-07-04 23:53:00
5:53 PM,105.1,64.0,26,29.54,10.0,SE,18.4,-,N/A,,Partly Cloudy,140,2013-07-05 00:53:00
6:53 PM,100.9,66.0,32,29.55,10.0,SE,16.1,-,N/A,,Clear,130,2013-07-05 01:53:00
7:53 PM,97.0,69.1,40,29.57,10.0,SE,15.0,-,N/A,,Clear,140,2013-07-05 02:53:00
8:53 PM,93.0,66.9,42,29.58,10.0,SSE,13.8,-,N/A,,Clear,150,2013-07-05 03:53:00
9:53 PM,91.9,66.0,42,29.61,10.0,SE,13.8,-,N/A,,Clear,140,2013-07-05 04:53:00
10:53 PM,88.0,72.0,59,29.62,10.0,SE,13.8,-,N/A,,Clear,140,2013-07-05 05:53:00
11:53 PM,87.1,73.0,63,29.62,10.0,SE,8.1,-,N/A,,Clear,140,2013-07-05 06:53:00